{"data":{"norad_id":66073,"intl_designator":"2025-235R","name":"STARLINK-35274","alt_names":[],"object_type":"PAYLOAD","status":"ACTIVE","operator":null,"country":"US","launch_date":"2025-10-19","launch_site_code":"AFETR","launch_vehicle":null,"mission":null,"orbit_class":"UNKNOWN","rcs_meters":null,"size_class":null,"mass_kg":null,"dimensions":null,"purposes":["comms"],"wikipedia_slug":null,"has_3d_model":false,"image_url":null,"decayed_at":null,"tle_current":{"epoch":"2026-05-25T00:30:24.279840Z","epoch_age_seconds":72880,"freshness":"FRESH","line1":"1 66073U 25235R   26145.02111435  .00022757  00000+0  77849-3 0  9994","line2":"2 66073  53.1598 251.0378 0001884  86.5134 273.6082 15.30184516 34604","mean_motion":15.30184516,"eccentricity":0.0001884,"inclination_deg":53.1598,"raan_deg":251.0378,"arg_perigee_deg":86.5134,"mean_anomaly_deg":273.6082,"bstar":0.00077849,"rev_number":3460,"period_min":94.106297962304,"perigee_km":473.97012200203,"apogee_km":476.55248248231,"semimajor_km":6853.3983022422,"source":"CELESTRAK","updated_at":"2026-05-25T13:38:21.023351Z"}}}